| time (UTC) | temp F | wind direction | speed knots | gust knots | rain 1hr in | rain 24hr in | rain mn in | humidity % | barometer mb |
| 20260906033328 | 75 | 324 | 0.9 | 1.7 | 0.00 | 0.67 | 0.17 | 94 | 1012.6 |
| 20260906032326 | 75 | 331 | 0.9 | 1.7 | 0.00 | 0.67 | 0.17 | 94 | 1012.5 |
| 20260906031322 | 75 | 223 | 0.9 | 2.6 | 0.00 | 0.67 | 0.17 | 94 | 1012.6 |
| 20260906030326 | 75 | 181 | 1.7 | 2.6 | 0.00 | 0.67 | 0.17 | 94 | 1012.5 |
| 20260906025319 | 75 | 244 | 1.7 | 2.6 | 0.00 | 0.67 | 0.17 | 94 | 1012.5 |
| 20260906024318 | 75 | 258 | 1.7 | 2.6 | 0.00 | 0.67 | 0.17 | 94 | 1012.6 |
| 20260906023311 | 75 | 244 | 1.7 | 2.6 | 0.00 | 0.67 | 0.17 | 94 | 1012.6 |
| 20260906022332 | 75 | 280 | 1.7 | 2.6 | 0.00 | 0.67 | 0.17 | 94 | 1012.7 |
| 20260906021327 | 75 | 305 | 0.0 | 0.9 | 0.00 | 0.67 | 0.17 | 94 | 1012.6 |
| 20260906020314 | 75 | 340 | 0.9 | 1.7 | 0.00 | 0.67 | 0.17 | 94 | 1012.3 |
| 20260906015310 | 75 | 269 | 0.9 | 2.6 | 0.00 | 0.67 | 0.17 | 94 | 1012.3 |
| 20260906014332 | 76 | 242 | 0.9 | 2.6 | 0.00 | 0.67 | 0.17 | 94 | 1012.4 |
| 20260906013309 | 76 | 265 | 1.7 | 2.6 | 0.00 | 0.67 | 0.17 | 94 | 1012.3 |
| 20260906012326 | 76 | 208 | 2.6 | 4.3 | 0.00 | 0.67 | 0.17 | 94 | 1012.3 |
| 20260906011329 | 76 | 273 | 1.7 | 4.3 | 0.00 | 0.67 | 0.17 | 94 | 1012.3 |
| 20260906010325 | 76 | 123 | 2.6 | 4.3 | 0.00 | 0.67 | 0.17 | 94 | 1012.6 |
| 20260906005350 | 76 | 193 | 1.7 | 3.5 | 0.00 | 0.67 | 0.17 | 94 | 1012.5 |
| 20260906004326 | 76 | 144 | 1.7 | 3.5 | 0.00 | 0.67 | 0.17 | 94 | 1012.5 |
| 20260906003350 | 76 | 71 | 0.9 | 4.3 | 0.00 | 0.67 | 0.17 | 94 | 1012.4 |
| 20260906002327 | 76 | 124 | 1.7 | 4.3 | 0.00 | 0.67 | 0.17 | 94 | 1012.1 |
| 20260906001332 | 76 | 299 | 0.9 | 3.5 | 0.00 | 0.67 | 0.17 | 93 | 1011.3 |
| 20260906000323 | 76 | 258 | 2.6 | 5.2 | 0.00 | 0.67 | 0.17 | 93 | 1011.1 |
| 20260905235318 | 76 | 277 | 1.7 | 6.1 | 0.00 | 0.67 | 0.17 | 93 | 1010.9 |
| 20260905234318 | 76 | 271 | 3.5 | 6.1 | 0.00 | 0.67 | 0.17 | 94 | 1010.8 |
| 20260905233315 | 76 | 244 | 2.6 | 3.5 | 0.00 | 0.67 | 0.17 | 93 | 1010.8 |
| 20260905232312 | 76 | 269 | 1.7 | 3.5 | 0.00 | 0.67 | 0.17 | 94 | 1010.9 |
| 20260905231317 | 76 | 93 | 0.0 | 1.7 | 0.00 | 0.67 | 0.17 | 94 | 1010.9 |
| 20260905230312 | 76 | 261 | 0.9 | 2.6 | 0.04 | 0.67 | 0.17 | 93 | 1010.8 |
| 20260905225334 | 76 | 282 | 1.7 | 4.3 | 0.08 | 0.67 | 0.17 | 93 | 1010.4 |
| 20260905224328 | 77 | 282 | 2.6 | 5.2 | 0.12 | 0.67 | 0.17 | 94 | 1010.3 |
| 20260905223331 | 77 | 284 | 2.6 | 4.3 | 0.12 | 0.67 | 0.17 | 94 | 1010.0 |
| 20260905222327 | 77 | 271 | 1.7 | 2.6 | 0.12 | 0.67 | 0.17 | 94 | 1009.4 |
| 20260905221323 | 76 | 284 | 0.9 | 2.6 | 0.12 | 0.67 | 0.17 | 93 | 1009.5 |
| 20260905220327 | 76 | 269 | 0.9 | 5.2 | 0.24 | 0.63 | 0.16 | 93 | 1010.2 |
| 20260905215320 | 76 | 236 | 4.3 | 11.3 | 0.43 | 0.59 | 0.15 | 93 | 1010.9 |
| 20260905214343 | 76 | 184 | 1.7 | 9.6 | 0.47 | 0.55 | 0.14 | 92 | 1010.0 |
| 20260905213315 | 76 | 53 | 4.3 | 10.4 | 0.55 | 0.55 | 0.14 | 91 | 1010.5 |
| 20260905212315 | 76 | 95 | 2.6 | 7.8 | 0.55 | 0.55 | 0.14 | 90 | 1011.5 |
| 20260905211355 | 77 | 269 | 1.7 | 10.4 | 0.55 | 0.55 | 0.14 | 89 | 1012.1 |
| 20260905210323 | 78 | 285 | 7.8 | 20.9 | 0.35 | 0.35 | 0.09 | 89 | 1012.6 |
| 20260905205313 | 79 | 243 | 12.2 | 27.8 | 0.16 | 0.16 | 0.04 | 85 | 1011.0 |
| 20260905204312 | 86 | 273 | 15.6 | 29.5 | 0.04 | 0.04 | 0.01 | 70 | 1010.8 |
| 20260905203325 | 98 | 236 | 5.2 | 10.4 | 0.00 | 0.00 | 0.00 | 56 | 1010.5 |
| 20260905202327 | 99 | 256 | 1.7 | 2.6 | 0.00 | 0.00 | 0.00 | 54 | 1009.6 |
| 20260905201323 | 100 | 259 | 1.7 | 3.5 | 0.00 | 0.00 | 0.00 | 51 | 1009.4 |
| 20260905200321 | 101 | 236 | 0.9 | 3.5 | 0.00 | 0.00 | 0.00 | 51 | 1009.4 |
| 20260905195320 | 101 | 300 | 1.7 | 6.1 | 0.00 | 0.00 | 0.00 | 50 | 1009.5 |
| 20260905194342 | 102 | 321 | 2.6 | 7.8 | 0.00 | 0.00 | 0.00 | 51 | 1009.7 |
| 20260905193315 | 102 | 192 | 2.6 | 7.0 | 0.00 | 0.00 | 0.00 | 47 | 1009.8 |
| 20260905192337 | 103 | 243 | 1.7 | 4.3 | 0.00 | 0.00 | 0.00 | 49 | 1009.7 |
| 20260905191310 | 103 | 248 | 2.6 | 7.0 | 0.00 | 0.00 | 0.00 | 48 | 1009.6 |
| 20260905190330 | 103 | 271 | 4.3 | 6.1 | 0.00 | 0.00 | 0.00 | 50 | 1009.9 |
| 20260905185320 | 102 | 244 | 4.3 | 8.7 | 0.00 | 0.00 | 0.00 | 50 | 1009.9 |
| 20260905184318 | 102 | 5 | 0.9 | 4.3 | 0.00 | 0.00 | 0.00 | 54 | 1010.1 |
| 20260905183323 | 101 | 53 | 2.6 | 3.5 | 0.00 | 0.00 | 0.00 | 53 | 1010.3 |
| 20260905182319 | 100 | 319 | 2.6 | 4.3 | 0.00 | 0.00 | 0.00 | 54 | 1010.6 |
| 20260905181312 | 100 | 326 | 1.7 | 4.3 | 0.00 | 0.00 | 0.00 | 55 | 1010.8 |
| 20260905180329 | 101 | 315 | 2.6 | 4.3 | 0.00 | 0.00 | 0.00 | 54 | 1010.9 |
| 20260905175320 | 100 | 338 | 2.6 | 7.0 | 0.00 | 0.00 | 0.00 | 55 | 1011.3 |
| 20260905174311 | 101 | 172 | 2.6 | 7.8 | 0.00 | 0.00 | 0.00 | 54 | 1011.4 |
| 20260905173327 | 100 | 286 | 3.5 | 6.1 | 0.00 | 0.00 | 0.00 | 56 | 1011.7 |
| 20260905172325 | 100 | 225 | 1.7 | 7.0 | 0.00 | 0.00 | 0.00 | 55 | 1011.9 |
| 20260905171317 | 100 | 227 | 4.3 | 7.0 | 0.00 | 0.00 | 0.00 | 54 | 1012.0 |
| 20260905170334 | 100 | 355 | 1.7 | 3.5 | 0.00 | 0.00 | 0.00 | 56 | 1012.1 |
| 20260905165341 | 99 | 252 | 2.6 | 6.1 | 0.00 | 0.00 | 0.00 | 57 | 1012.2 |
| 20260905164339 | 99 | 231 | 4.3 | 6.1 | 0.00 | 0.00 | 0.00 | 60 | 1012.3 |
| 20260905163334 | 98 | 284 | 2.6 | 7.0 | 0.00 | 0.00 | 0.00 | 59 | 1012.5 |
| 20260905162309 | 98 | 330 | 1.7 | 5.2 | 0.00 | 0.00 | 0.00 | 60 | 1012.6 |
| 20260905161324 | 97 | 360 | 2.6 | 7.0 | 0.00 | 0.00 | 0.00 | 61 | 1012.8 |
| 20260905160335 | 97 | 242 | 4.3 | 6.1 | 0.00 | 0.00 | 0.00 | 63 | 1012.9 |
| 20260905155310 | 96 | 275 | 0.9 | 7.0 | 0.00 | 0.00 | 0.00 | 64 | 1013.2 |
| 20260905154331 | 96 | 207 | 2.6 | 6.1 | 0.00 | 0.00 | 0.00 | 65 | 1013.3 |
| 20260905153343 | 96 | 261 | 4.3 | 7.8 | 0.00 | 0.00 | 0.00 | 65 | 1013.3 |
| 20260905152322 | 95 | 245 | 1.7 | 7.0 | 0.00 | 0.00 | 0.00 | 67 | 1013.3 |
| 20260905151311 | 95 | 253 | 3.5 | 6.1 | 0.00 | 0.00 | 0.00 | 67 | 1013.3 |
| 20260905150327 | 94 | 288 | 3.5 | 7.0 | 0.00 | 0.00 | 0.00 | 68 | 1013.2 |
| 20260905145317 | 93 | 254 | 1.7 | 7.0 | 0.00 | 0.00 | 0.00 | 70 | 1013.2 |
| 20260905144308 | 93 | 180 | 3.5 | 7.8 | 0.00 | 0.00 | 0.00 | 70 | 1013.1 |
| 20260905143324 | 92 | 249 | 4.3 | 7.8 | 0.00 | 0.00 | 0.00 | 73 | 1013.1 |
| 20260905142342 | 91 | 216 | 3.5 | 7.0 | 0.00 | 0.00 | 0.00 | 74 | 1013.1 |
| 20260905141339 | 90 | 263 | 2.6 | 7.8 | 0.00 | 0.00 | 0.00 | 75 | 1013.2 |
| 20260905140309 | 90 | 262 | 5.2 | 8.7 | 0.00 | 0.00 | 0.00 | 75 | 1013.3 |
| 20260905135325 | 89 | 173 | 4.3 | 7.8 | 0.00 | 0.00 | 0.00 | 77 | 1013.2 |
| 20260905134335 | 88 | 267 | 2.6 | 9.6 | 0.00 | 0.00 | 0.00 | 78 | 1013.4 |
| 20260905133311 | 87 | 265 | 4.3 | 7.8 | 0.00 | 0.00 | 0.00 | 79 | 1013.5 |
| 20260905132349 | 87 | 199 | 2.6 | 6.1 | 0.00 | 0.00 | 0.00 | 82 | 1013.5 |
| 20260905131338 | 86 | 244 | 3.5 | 7.8 | 0.00 | 0.00 | 0.00 | 81 | 1013.5 |
| 20260905130312 | 85 | 215 | 3.5 | 10.4 | 0.00 | 0.00 | 0.00 | 83 | 1013.5 |
| 20260905125329 | 85 | 209 | 4.3 | 8.7 | 0.00 | 0.00 | 0.00 | 84 | 1013.6 |
| 20260905124318 | 84 | 231 | 4.3 | 10.4 | 0.00 | 0.00 | 0.00 | 85 | 1013.6 |
| 20260905123335 | 83 | 203 | 3.5 | 7.0 | 0.00 | 0.00 | 0.00 | 87 | 1013.6 |
| 20260905122308 | 83 | 220 | 2.6 | 7.0 | 0.00 | 0.00 | 0.00 | 87 | 1013.5 |
| 20260905121348 | 82 | 232 | 2.6 | 7.8 | 0.00 | 0.00 | 0.00 | 88 | 1013.5 |
| 20260905120321 | 82 | 249 | 4.3 | 7.0 | 0.00 | 0.00 | 0.00 | 88 | 1013.4 |
| 20260905115322 | 81 | 289 | 4.3 | 7.8 | 0.00 | 0.00 | 0.00 | 89 | 1013.3 |
| 20260905114316 | 81 | 244 | 3.5 | 7.0 | 0.00 | 0.00 | 0.00 | 89 | 1013.3 |
| 20260905113312 | 81 | 211 | 2.6 | 6.1 | 0.00 | 0.00 | 0.00 | 90 | 1013.2 |
| 20260905112316 | 81 | 257 | 3.5 | 7.8 | 0.00 | 0.00 | 0.00 | 90 | 1013.1 |
| 20260905111311 | 81 | 244 | 2.6 | 4.3 | 0.00 | 0.00 | 0.00 | 90 | 1013.0 |
| 20260905110314 | 81 | 233 | 2.6 | 4.3 | 0.00 | 0.00 | 0.00 | 90 | 1013.0 |
| 20260905105313 | 81 | 194 | 0.9 | 4.3 | 0.00 | 0.00 | 0.00 | 89 | 1012.8 |
| 20260905104338 | 81 | 211 | 1.7 | 4.3 | 0.00 | 0.00 | 0.00 | 89 | 1012.6 |
| 20260905103314 | 81 | 197 | 3.5 | 7.0 | 0.00 | 0.00 | 0.00 | 89 | 1012.5 |
| 20260905102317 | 81 | 213 | 2.6 | 5.2 | 0.00 | 0.00 | 0.00 | 89 | 1012.5 |
| 20260905101312 | 81 | 221 | 2.6 | 5.2 | 0.00 | 0.00 | 0.00 | 89 | 1012.4 |
| 20260905100335 | 81 | 225 | 3.5 | 6.1 | 0.00 | 0.00 | 0.00 | 89 | 1012.3 |
| 20260905095349 | 81 | 178 | 3.5 | 7.0 | 0.00 | 0.00 | 0.00 | 89 | 1012.4 |
| 20260905094328 | 81 | 219 | 3.5 | 6.1 | 0.00 | 0.00 | 0.00 | 88 | 1012.4 |
| 20260905093325 | 81 | 209 | 2.6 | 7.0 | 0.00 | 0.00 | 0.00 | 88 | 1012.4 |
| 20260905092319 | 81 | 215 | 2.6 | 7.8 | 0.00 | 0.00 | 0.00 | 88 | 1012.4 |
| 20260905091320 | 81 | 229 | 1.7 | 5.2 | 0.00 | 0.00 | 0.00 | 88 | 1012.4 |
| 20260905090314 | 82 | 222 | 2.6 | 6.1 | 0.00 | 0.00 | 0.00 | 88 | 1012.5 |
| 20260905085310 | 82 | 186 | 2.6 | 5.2 | 0.00 | 0.00 | 0.00 | 88 | 1012.5 |
| 20260905084309 | 82 | 214 | 1.7 | 4.3 | 0.00 | 0.00 | 0.00 | 88 | 1012.6 |
| 20260905083321 | 81 | 227 | 2.6 | 6.1 | 0.00 | 0.00 | 0.00 | 88 | 1012.6 |
| 20260905082343 | 81 | 186 | 2.6 | 6.1 | 0.00 | 0.00 | 0.00 | 88 | 1012.6 |
| 20260905081320 | 81 | 217 | 2.6 | 6.1 | 0.00 | 0.00 | 0.00 | 87 | 1012.8 |
| 20260905080313 | 81 | 248 | 3.5 | 6.1 | 0.00 | 0.00 | 0.00 | 87 | 1012.9 |
| 20260905075312 | 81 | 239 | 2.6 | 4.3 | 0.00 | 0.00 | 0.00 | 87 | 1013.0 |
| 20260905074311 | 80 | 217 | 2.6 | 5.2 | 0.00 | 0.00 | 0.00 | 86 | 1013.2 |
| 20260905073324 | 80 | 159 | 2.6 | 5.2 | 0.00 | 0.00 | 0.00 | 84 | 1013.2 |
| 20260905072324 | 80 | 236 | 2.6 | 3.5 | 0.00 | 0.00 | 0.00 | 84 | 1013.3 |
| 20260905071335 | 80 | 180 | 1.7 | 3.5 | 0.00 | 0.00 | 0.00 | 83 | 1013.4 |
| 20260905070313 | 80 | 202 | 1.7 | 5.2 | 0.00 | 0.00 | 0.00 | 83 | 1013.6 |
| 20260905065324 | 80 | 160 | 1.7 | 3.5 | 0.00 | 0.00 | 0.00 | 82 | 1013.8 |
| 20260905064327 | 80 | 180 | 1.7 | 3.5 | 0.00 | 0.00 | 0.00 | 82 | 1013.9 |
| 20260905063319 | 80 | 154 | 1.7 | 3.5 | 0.00 | 0.00 | 0.00 | 81 | 1013.9 |
| 20260905062319 | 80 | 160 | 1.7 | 4.3 | 0.00 | 0.00 | 0.00 | 80 | 1014.1 |
| 20260905061308 | 80 | 100 | 2.6 | 4.3 | 0.00 | 0.00 | 0.00 | 80 | 1014.3 |
| 20260905060327 | 80 | 114 | 1.7 | 4.3 | 0.00 | 0.00 | 0.00 | 79 | 1014.4 |
| 20260905055320 | 80 | 167 | 2.6 | 4.3 | 0.00 | 0.00 | 0.00 | 79 | 1014.5 |
| 20260905054341 | 80 | 192 | 2.6 | 5.2 | 0.00 | 0.00 | 0.00 | 79 | 1014.7 |
| 20260905053313 | 80 | 153 | 2.6 | 4.3 | 0.00 | 0.00 | 0.00 | 78 | 1014.8 |
| 20260905052331 | 80 | 150 | 2.6 | 4.3 | 0.00 | 0.00 | 0.00 | 78 | 1014.8 |
| 20260905051322 | 81 | 160 | 2.6 | 4.3 | 0.00 | 0.00 | 0.00 | 77 | 1015.0 |
| 20260905050315 | 81 | 143 | 2.6 | 6.1 | 0.00 | 0.00 | 0.00 | 77 | 1015.1 |
| 20260905045314 | 81 | 107 | 1.7 | 4.3 | 0.00 | 0.00 | 0.00 | 77 | 1015.5 |
| 20260905044310 | 81 | 128 | 2.6 | 5.2 | 0.00 | 0.00 | 0.00 | 77 | 1015.5 |
| 20260905043327 | 82 | 63 | 1.7 | 6.1 | 0.00 | 0.00 | 0.00 | 76 | 1015.8 |
| 20260905042347 | 82 | 149 | 2.6 | 6.1 | 0.00 | 0.00 | 0.00 | 75 | 1015.9 |
| 20260905041317 | 82 | 122 | 1.7 | 7.0 | 0.00 | 0.00 | 0.00 | 75 | 1016.0 |
| 20260905040335 | 83 | 96 | 3.5 | 10.4 | 0.00 | 0.00 | 0.00 | 74 | 1016.1 |
| 20260905035309 | 84 | 97 | 5.2 | 10.4 | 0.00 | 0.00 | 0.00 | 73 | 1016.6 |
| 20260905034323 | 84 | 81 | 6.1 | 16.5 | 0.00 | 0.00 | 0.00 | 74 | 1016.6 |